Weather History for Joplin, MO

Change the Weather History Date:

Sunday, January 6, 2013

  Actual Average Record
Temperature  
Mean Temperature 33 °F 35 °F  
Max Temperature 42 °F 44 °F 74 °F (2008)
Min Temperature 24 °F 25 °F -9 °F (2014)
Degree Days  
Heating Degree Days 32 30  
Month to date heating degree days 210 180  
Since 1 July heating degree days 1707 1797  
Cooling Degree Days 0 0  
Month to date cooling degree days 0 0  
Year to date cooling degree days 0 0  
Moisture  
Dew Point 22 °F    
Average Humidity 63    
Maximum Humidity 85    
Minimum Humidity 41    
Precipitation  
Precipitation 0.00 in 0.07 in 0.47 in (1998)
Month to date precipitation T 0.43  
Year to date precipitation T 0.43  
Sea Level Pressure  
Sea Level Pressure 30.35 in    
Wind  
Wind Speed 4 mph (WNW)    
Max Wind Speed 12 mph    
Max Gust Speed 15 mph    
Visibility 10 miles    
Events      
T = Trace of Precipitation, MM = Missing Value Source: NWS Daily Summary

Daily Weather History Graph

Daily Weather History Graph

Search for Another Location

Airport:

Trip Planner

Search our weather history database for the weather conditions in past years. The results will help you decide how hot, cold, wet, or windy it might be!

Date:

Astronomy

Jan. 06, 2013 Rise Set
Actual Time 7:32 AM CST 5:16 PM CST
Civil Twilight 7:03 AM CST 5:44 PM CST
Nautical Twilight 6:30 AM CST 6:17 PM CST
Astronomical Twilight 5:59 AM CST 6:48 PM CST
Moon 1:50 AM CST (1/6) 12:41 PM CST (1/6)
Length of Visible Light 10h 41m
Length of Day
9h 44m
Waning Crescent, 33% of the Moon is Illuminated
Jan 6
Waning Crescent
Jan 11
New
Jan 18
First Quarter
Jan 26
Full
Feb 3
Last Quarter

Hourly Weather History & Observations

Time (CST) Temp. Windchill Dew Point Humidity Pressure Visibility Wind Dir Wind Speed Gust Speed Precip Events Conditions
12:53 AM 30.0 °F 24.1 °F 26.1 °F 85% 30.25 in 10.0 mi WSW 5.8 mph - N/A   Clear
1:53 AM 28.0 °F 22.8 °F 25.0 °F 88% 30.26 in 10.0 mi WSW 4.6 mph - N/A   Clear
2:53 AM 27.0 °F 20.5 °F 23.0 °F 85% 30.28 in 10.0 mi West 5.8 mph - N/A   Clear
3:53 AM 28.4 °F 20.4 °F 23.0 °F 80% 30.26 in 10.0 mi West 8.1 mph - N/A   Clear
4:53 AM 26.1 °F 20.5 °F 21.9 °F 84% 30.30 in 10.0 mi West 4.6 mph - N/A   Clear
5:53 AM 26.6 °F 19.1 °F 21.2 °F 80% 30.29 in 10.0 mi West 6.9 mph - N/A   Clear
6:53 AM 25.0 °F 16.3 °F 19.9 °F 81% 30.35 in 10.0 mi NW 8.1 mph - N/A   Clear
7:53 AM 24.1 °F 17.0 °F 19.9 °F 84% 30.37 in 10.0 mi WNW 5.8 mph - N/A   Clear
8:53 AM 28.9 °F 22.8 °F 21.9 °F 75% 30.39 in 10.0 mi NW 5.8 mph - N/A   Clear
9:53 AM 30.9 °F 22.8 °F 23.0 °F 72% 30.41 in 10.0 mi NNW 9.2 mph - N/A   Clear
10:53 AM 34.0 °F 28.8 °F 23.0 °F 64% 30.41 in 10.0 mi NNW 5.8 mph - N/A   Clear
11:53 AM 36.0 °F 31.1 °F 23.0 °F 59% 30.40 in 10.0 mi Variable 5.8 mph - N/A   Clear
12:53 PM 37.9 °F 32.1 °F 23.0 °F 55% 30.38 in 10.0 mi NNW 8.1 mph - N/A   Clear
1:53 PM 39.9 °F 35.1 °F 21.9 °F 49% 30.37 in 10.0 mi NW 6.9 mph - N/A   Clear
2:53 PM 41.0 °F 37.1 °F 21.9 °F 47% 30.36 in 10.0 mi Variable 5.8 mph - N/A   Clear
3:53 PM 41.0 °F 38.0 °F 21.0 °F 45% 30.37 in 10.0 mi Variable 4.6 mph - N/A   Clear
4:53 PM 41.0 °F - 19.9 °F 43% 30.37 in 10.0 mi Calm Calm - N/A   Clear
5:53 PM 33.1 °F - 19.9 °F 59% 30.37 in 10.0 mi Calm Calm - N/A   Clear
6:53 PM 32.0 °F - 21.0 °F 64% 30.38 in 10.0 mi Calm Calm - N/A   Clear
7:53 PM 28.0 °F 24.2 °F 19.9 °F 72% 30.39 in 7.0 mi ESE 3.5 mph - N/A   Clear
9:53 PM 27.0 °F 23.0 °F 19.9 °F 75% 30.38 in 9.0 mi South 3.5 mph - N/A   Clear
10:53 PM 25.0 °F 20.7 °F 19.0 °F 78% 30.37 in 10.0 mi SE 3.5 mph - N/A   Clear
11:53 PM 28.0 °F 24.2 °F 19.9 °F 72% 30.38 in 10.0 mi SSE 3.5 mph - N/A   Clear